Race Results for
Utah City Crits West Valley City
West Valley City, UT
(Event Information)
View By:
Criterium on 07/02/2013

Note: Ranking points are NOT upgrade points. An explanation of ranking points can be found here.


Men - Cat4/5

 Place Points NameCity, StateTime USAC #BibTeam
1319.68Jeffrey MITCHELL   Las Vegas, NV18:48:58.69 298516  219 Care Fast B/P Les Rois
2338.99Jason MCGREW   Bluffdale, UT18:48:59.22 345456  221 Specialized Bicycles
3358.30Todd Holsten (1 - Cat5)   Bountiful, UT00:00:00.00 266945  210 
4377.61Grayson GEARIN   Las Vegas, NV18:49:39.10 361193  203 Care Fast B/P Les Rois
5396.92S.todd WAHL   801706784018:49:39.46 152635  233 Revolution Cafe Rio
6416.23Dylan TODD   Lasvegas, NV18:49:39.75 307324  204 Cal Pools/Primal
7435.54Eric SCHRAMM   Salt Lake Cty, UT18:49:39.82 50631  206 
8454.85Jason BURNHAM (2 - Cat5)   Bountiful, UT00:00:00.00 308371  207 MiDuole
9474.16Michael CONTI   Park City, UT00:00:00.00 266003  215 K2 The Church
10Mike WALKINGSTICK   18:49:43.60  293 
11512.78Bruce DEPPE (3 - Cat5)   Salt Lake City, UT18:49:45.05 402166  216 
12532.09Heidi ROUNDY   West Jordan, UT18:49:46.09 371634  299 CA Pools / CFS Mortgage
13551.40Shanin MILLER   Draper, UT18:50:12.81 57785  217 Canyon Bicycles-Draper
14Todd ERICKSON   18:50:16.11  294 Specialized
15590.02Barbara SHERWOOD   Salt Lake City, UT 170187  292 Bountiful Mazada
DNFJames ALLEN   Salt Lake City, UT00:00:00.00 367100  200 SaltCycle-Intelitechs
DNFJason BURNHAM (Cat5)   Bountiful, UT00:00:00.00 308371  205 Mi Duole/Barbacoa
DNFAlejandro CHAGOYA (Cat5)   Warrenville00:00:00.00 406421  208 
DNFJustin BELLIVEAU (Cat5)   Salt Lake City, UT00:00:00.00 407822  295 
DNFTodd HOLSTEN (Cat5)   Bountiful, UT00:00:00.00 266945  300 

Men - Cat3/4

 Place Points NameCity, StateTime USAC #BibTeam
0230.23David GLADSTONE   Denver, CO00:00:00.00 82663  105 Cycleton
0230.23Addison FULLER   Las Vegas, NV00:00:00.00 304039  112 Allegiant Air Cycling
0230.23Bradford SHELTON (1 - Cat4)   Murray, UT00:00:00.00 294013  135 Kryki Sports Audi
1237.56Ben SCHMALZ   Saratoga Springs, UT19:44:14.36 361433  133 Cicada Racing Inc
2244.89Scott BUCCAMBUSO   Salt Lake City, UT19:44:15.09 350648  100 Cicada Racing
3252.22Eric GARDINER   Salt Lake City, UT19:44:42.59 268968  103 Cicada Racing Inc
4259.55Andrew LOVE   Salt Lake City, UT19:44:42.67 56255  113 RMCC
5266.88Nathan STEELE   Salt Lake City, UT19:44:43.55 309835  198 SaltCycle-Intelitechs
6274.21Daniel MARSH   Salt Lake City, UT19:44:43.82 394823  118 SaltCycle-Intelitechs
7281.54Steve LAWRENCE (2 - Cat4)   Salt Lake City, UT19:44:44.29 322076  190 Racer Heads Sports and Leisure
8288.87Jeremy WARD   Orem, UT19:44:44.42 295705  166 Utah Premier-Ski Utah Cycling
9296.20Morgan MAHANKE   El Dorado Hills, CA19:44:44.66 226577  185 Team Bicycles Plus
10303.53Gary HURST   Saltlakecity, UT19:44:44.85 299675  108 SaltCycle-Intelitechs
11310.86Ernie SANCHEZ   Murrieta, CA19:44:44.87 53550  131 CA Pools/Primal
12318.19Larry Luke   Park City, UT19:44:45.11 248353  116 FFKR Architects Racing
13325.52Al TAKEMORI (3 - Cat4)   Lehi, UT19:44:45.53 276940  170 Team Dialogue
14332.85Kirk CAMPBELL   Salt Lake City, UT19:44:45.57 299152  188 
15340.18Alex KIM   Salt Lake City, UT19:44:46.34 261800  182 DNA Cycling p/b Plan7
16347.51Eric YELSA   Taylorsville, UT19:44:46.61 46090  107 The Contender Club
17354.84Glen ADAMS   Sandy, UT19:44:46.69 1135  183 Specialized
18362.17Guy ROUNDY   West Jordan, UT19:44:46.90 51897  130 CA Pools/Primal
19369.50John THOMAS   Park City, UT00:00:00.00 199388  138 COTBR
20376.83Paul BURGER (4 - Cat4)   Salt Lake City19:44:49.12 376312  178 Salt Cycle
21384.16Tom MILLAR   Salt Lake City, UT19:44:49.36 369498  122 SaltCycle-Intelitechs
22391.49Thomas FOWLER   Salt Lake City, UT19:44:50.21 334296  164 VeloCity Cyclists/Canyon Bicyc
23398.82Daniel SELLERS (5 - Cat4)   Salt Lake City, UT19:45:37.24 376827  174 SaltCycle - Intelitechs
24406.15Rick FINLAYSON (6 - Cat4)   Highland, UT19:46:21.64 279124  171 Team Dialogue
25413.48Edward KILBOURN   Salt Lake City, UT19:46:21.65 357519  109 Cicada Racing inc
26420.81Grayson MILLARD (7 - Cat4)   Salt Lake City, UT19:46:21.66 376089  177 FFKR Architects Racing
27428.14Nolan FINLAYSON   Riverton, UT19:46:21.69 291403  167 Team Dialogue
28435.47Amber BROWN   West Bountiful, UT19:46:21.70 338506  197 DNA Cycling p/b Plan7
29442.80Austin KNUTSON (8 - Cat4)   Salt Lake City, UT19:46:21.73 291966  121 SkullCandy/THINK Architecture
30450.13Byron KOSICK   Sandy, UT19:46:21.75 19679  184 VeloCity Cyclists/Canyon Bicyc
31457.46Anne PERRY   Draper, UT19:46:21.77 339882  127 Revolution Cafe Rio
32464.79David GLADSTONE   Denver, CO19:46:21.79 82663  199 Cycleton
33472.12Clark MOWER   Salt Lake City, UT19:46:21.81 182575  172 CONTENDER BICYCLES
34479.45Jeffrey MITCHELL (9 - Cat4)   Las Vegas, NV19:46:21.87 298516  124 Carefast P/B Les Rois
35486.78Ken LOUDER   Salt Lake City, UT19:46:21.98 179491  165 Velosport Racing
36494.11Jarren GARVIN (10 - Cat4)   801-916-802719:46:59.43 380014  181 FFKR
37501.44Grayson GEARIN (11 - Cat4)   Las Vegas, NV19:46:59.46 361193  104 Carefast P/B Les Rois
38508.77Kemille GARVIN   Salt Lake City, UT19:46:59.52 326298  180 DNA Cycling p/b Plan7
39516.10Ryan FINLAYSON (12 - Cat4)   Riverton, UT19:46:59.55 296771  168 Team Dialogue
40523.43Mike OBLAD (13 - Cat4)   Taylorsville, UT19:46:59.58 26520  169 Team Dialogue
41530.76Michael MACCI (14 - Cat4)   Salt Lake City, UT 129769  117 Team Plan7
DNFDylan TODD (Cat4)   Lasvegas, NV00:00:00.00 307324  142 Cal Pools/Primal
DNFTerry STONE (Cat4)   Draper, UT00:00:00.00 244823  173 Team Plan7
DNFAndrew PUTT   Salt Lake City , UT00:00:00.00 216552  176 
DNFEverett BISSONETTE (Cat4)   Murrieta, CA00:00:00.00 287434  179 CA Pools /CFS Mortgage
DNFSteve WILSON   Salt Lake City, UT00:00:00.00 263094  186 Team Dialogue

Men - Cat1/2/3

 Place Points NameCity, StateTime USAC #BibTeam
1174.86Michael WILCOX   Salt Lake City, UT20:59:59.39 78544  31 FFKR Architects Racing
2183.51Jonathan PAGE   Northfield, NH20:59:59.45 27066  24 ENG VT
3192.16Ira SORENSEN (1 - Cat2)   Herriman, UT21:00:00.02 318710  96 Infinite Cycles
4200.81Jason GOODFELLOW (2 - Cat2)   Salt Lake City, UT00:00:00.00 222317  15 Canyon Bicycles Draper
5Bill HARRIS   21:00:00.99  16 BBI-SIC
6218.11Eric FLYNN (3 - Cat2)   Salt Lake City, UT21:00:01.00 85427  10 FFKR Architects Racing
7226.76Matt ROSSMAN (4 - Cat2)   Salt Lake City, UT21:00:01.39 195297  27 Ski Utah - Marketstar Cycling
8235.41Clint CARTER (5 - Cat2)   Salt Lake City, UT21:00:01.41 220916  36 FFKR Architects Racing
9244.06Bob CRAIN (6 - Cat2)   Rancho Cucamonga, CA21:00:01.42 183270  Majestic Cycling
10252.71Mark FLIS (7 - Cat2)   Salt Lake City, UT21:00:01.73 282287  FFKR Architects Racing
11261.36Mike UNDERHILL (1 - Cat3)   South Jordan Ut00:00:00.00 318632  99 Infinite Cycles
12270.01Chad VANSOLKEMA (2 - Cat3)   Salt Lake City, UT21:00:02.37 278138  28 BICYCLE CENTER
13278.66Joe WATERS   Ogden, UT21:00:02.61 267821  92 VeloCity Cyclists/Canyon Bicyc
14287.31John MCKONE (8 - Cat2)   Park City, UT21:00:02.68 23665  22 Cole Sport Elite
15295.96Aaron OLSEN   Woodscross, UT21:00:02.97 181440  23 FFKR Architects Racing
16304.61Nathan ARNIM (9 - Cat2)   Salt Lake City, UT21:00:03.52 230024  93 FFKR Architects Racing
17313.26Will HANSON (10 - Cat2)   Draper, UT21:00:06.91 276490  32 Revolution Cafe Rio
18321.91Jason CASTOR (11 - Cat2)   Salt Lake City, UT21:00:07.12 161560  Contender Bicycles
19330.56Rodney SMITH   Salt Lake City, UT21:00:07.71 52471  95 CONTENDER BICYCLES
20339.21Mark MILLER (12 - Cat2)   Draper, UT21:00:08.87 24435  37 VeloCity Cyclists/Canyon Bicyc
21347.86John PLATERO (3 - Cat3)   Newbury Park21:00:09.39 49472  25 Team Franco
22356.51Darrell DAVIS   Salt Lake Cty, UT21:00:09.56 8770  Contender Bicycles
23365.16David HARWARD   Salt Lake City, UT21:00:09.57 15338  17 PLAN7|BRIGHTFACE.
24373.81Michael TRUSSELL (13 - Cat2)   West Jordan, UT21:00:13.76 298346  91 Infinite Cycles
25382.46Jared BREWER (14 - Cat2)   Taylorsville21:00:16.08 370140  FFKR Architects Racing
26391.11Mike PRATT   Olympia, WA21:00:24.64 198936  26 Canyon Bicycles - Shimano
27399.76Andre GONZALEZ (15 - Cat2)   Lehi, UT21:00:29.01 91576  FFKR Architects Racing
28408.41Zack BUTTERFIELD (4 - Cat3)   South Jordan, UT21:00:41.06 181987  Canyon Bicycles-Draper
29417.06Julian FOWKES (16 - Cat2)   Salt Lake City, UT21:00:57.71 274402  90 
30425.71Eric THOMPSON (5 - Cat3)   Midvale, UT21:01:02.18 322070  29 FFKR Architects Racing
31434.36Steven FERGUSON (17 - Cat2)   Salt Lake City, UT00:00:00.00 48264  98 Morgan Stanley Cycling Team
32443.01David GLADSTONE (6 - Cat3)   Denver, CO21:01:12.53 82663  12 Cycleton
DNFSteve ALBRECHT   Lehi, UT00:00:00.00 279040  Ski Utah - Marketstar Cycling
DNFGwenael LAYEC (Cat3)   Salt Lake City, UT00:00:00.00 352626  21 
DNFTyler MOORE (Cat3)   Herriman, UT00:00:00.00 66091  94 
DNFAnne PERRY   Draper, UT00:00:00.00 339882  127 DNA Cycling p/b Plan7

Report missing or incorrect license numbers

Volkswagen
Bonk BreakerSpySierra NevadaUSACDFShimano
UCI USA Cycling is the official governing body for all disciplines of competitive cycling in the United States. The 501c3, membership-based organization aims both to achieve sustained success in international cycling competition and to grow competitive cycling in America while delivering an exceptional customer experience.
View Children's Online Privacy Protection Policy
US Olympic Committee